Tracking 29892 objects as of 21-Nov-2024
HD Live streaming from Space Station
objects crossing your sky now

STARLINK-6257

Track STARLINK-6257 now!
10-day predictions
STARLINK-6257 is classified as:


NORAD ID: 57088
Int'l Code: 2023-088AS
Perigee: 565.5 km
Apogee: 567.0 km
Inclination: 43.0 °
Period: 95.8 minutes
Semi major axis: 6937 km
RCS: Unknown
Launch date: June 22, 2023
Source: United States (US)
Launch site: AIR FORCE WESTERN TEST RANGE (AFWTR)
Your satellite tracking list
Your tracking list is empty




NASA's NSSDC Master Catalog

Two Line Element Set (TLE):
1 57088U 23088AS  24325.86729554  .00000594  00000-0  59018-4 0  9996
2 57088  43.0012 149.1562 0001068 267.5566  92.5154 15.02538736 79248
Source of the keplerian elements: AFSPC